Flag for Norway Weather past 2 weeks in Sandnessjøen, Norway

37 °F


Feels Like: 28 °F
Forecast: 41 / 42 °F
Wind: 16 mph from Southeast

Location: Bronnoysund / Bronnoy

Current Time: Nov 29, 2015 at 8:11:54 AM

Latest Report: Nov 29, 2015 at 7:20 AM

Visibility: N/A

Pressure: 28.82 "Hg

Humidity: 65%

Dew point: 27 °F

Location of SandnessjøenLocation

Historic Weather in Sandnessjøen — Graph


Sandnessjøen temperature yesterday

Maximum temperature yesterday: 43 °F (at 12:50 AM)
Minimum temperature yesterday: 34 °F (at 1:20 PM)
Average temperature yesterday: 38 °F

Past Weeks' High & Low Weather Summary

High46 °F (Nov 26, 7:50 PM)100% (Nov 19, 4:20 AM)29.74 "Hg (Nov 19, 4:20 AM)
Low23 °F (Nov 22, 2:50 AM)48% (Nov 29, 4:50 AM)28.82 "Hg (Nov 29, 5:20 AM)
Average36 °F81%29.33 "Hg
* Reported Nov 14 5:50 AM — Nov 29 5:50 AM, Sandnessjøen, Weather by CustomWeather, © 2015

Note: Actual official high and low records may vary slightly from our data, if they occured in-between our weather recording intervals... More about our weather records


Sandnessjøen weather history for previous 24 hours

Time TempWeatherWind HumidityBarometerVisibility
5:50 AM
Sun, Nov 29
37 °FClear.17 mph60%28.82 "HgN/A
5:20 AM37 °FClear.13 mph60%28.82 "HgN/A
4:50 AM39 °FClear.13 mph48%28.85 "HgN/A
4:20 AM37 °FPassing clouds.12 mph60%28.85 "HgN/A
3:50 AM37 °FChilly.13 mph60%28.88 "HgN/A
3:20 AM39 °FChilly.16 mph61%28.88 "HgN/A
2:50 AM39 °FChilly.15 mph61%28.91 "HgN/A
2:20 AM37 °FChilly.16 mph65%28.91 "HgN/A
1:50 AM37 °FPassing clouds.20 mph60%28.91 "HgN/A
12:50 AM39 °FPassing clouds.20 mph61%28.94 "HgN/A
12:20 AM39 °FClear.18 mph65%28.94 "HgN/A
11:50 PM
Sat, Nov 28
37 °FClear.14 mph70%28.94 "HgN/A
10:50 PM37 °FPassing clouds.17 mph70%28.97 "HgN/A
10:20 PM39 °FPassing clouds.20 mph65%28.97 "HgN/A
9:20 PM37 °FSprinkles. Overcast.20 mph81%28.97 "HgN/A
8:50 PM37 °FSprinkles. Mostly cloudy.23 mph75%28.97 "HgN/A
8:20 PM37 °FSprinkles. Mostly cloudy.18 mph75%28.97 "HgN/A
7:50 PM36 °FSprinkles. Fog.21 mph87%29.00 "HgN/A
7:20 PM37 °FPassing clouds.18 mph81%28.97 "HgN/A
6:50 PM37 °FSprinkles. Fog.16 mph81%29.00 "HgN/A
6:20 PM37 °FMostly cloudy.16 mph81%29.00 "HgN/A
5:50 PM37 °FPartly cloudy.21 mph81%29.00 "HgN/A
5:20 PM37 °FPassing clouds.16 mph81%29.00 "HgN/A
4:50 PM37 °FScattered showers. Passing clouds.18 mph81%29.00 "HgN/A
4:20 PM37 °FScattered showers. Passing clouds.15 mph81%29.00 "HgN/A
3:50 PM37 °FScattered showers. Partly cloudy.14 mph81%29.00 "HgN/A
3:20 PM36 °FSprinkles. Passing clouds.15 mph87%29.03 "HgN/A
2:50 PM36 °FScattered showers. Partly cloudy.17 mph87%29.03 "HgN/A
2:20 PM36 °FSprinkles. Passing clouds.24 mph87%29.00 "HgN/A
1:50 PM36 °FSprinkles. Scattered clouds.20 mph93%29.00 "HgN/A
1:20 PM34 °FSnow flurries. Fog.12 mph93%29.03 "Hg3 mi
12:50 PM37 °FSprinkles. Broken clouds.21 mph81%29.00 "HgN/A
12:20 PM39 °FScattered showers. Broken clouds.22 mph75%29.00 "HgN/A
11:50 AM39 °FScattered showers. Partly sunny.22 mph81%29.00 "HgN/A
11:20 AM37 °FLight rain. Partly sunny.23 mph87%29.00 "HgN/A
10:50 AM39 °FScattered clouds.20 mph75%29.00 "HgN/A
10:20 AM39 °FScattered clouds.20 mph81%29.00 "HgN/A
9:50 AM39 °FSprinkles. Scattered clouds.21 mph81%29.00 "HgN/A
9:20 AM39 °FSprinkles. Passing clouds.21 mph81%29.00 "HgN/A
8:50 AM39 °FSprinkles. Passing clouds.14 mph81%28.97 "HgN/A
Weather by CustomWeather, © 2015

See weather overviewHow to use our weather pages